This is the latest recevied weather packets stored in our database for station/object N3TJJ-2. If no packets are shown the sender has not sent any weather packets the latest 10 day(s).
| Time | Temp. | Humidity | Pressure | Rain* | Wind** | Luminosity | Snow |
|---|---|---|---|---|---|---|---|
| 1787851489 | 27.78° C | 75% | 1015.8 hPa | 0 mm | - | - | - |
| 1787851125 | 28.89° C | 75% | 1015.9 hPa | 0 mm | - | - | - |
| 1787850766 | 28.89° C | 75% | 1015.9 hPa | 0 mm | - | - | - |
| 1787850410 | 28.89° C | 75% | 1016 hPa | 0 mm | - | - | - |
| 1787850055 | 27.78° C | 76% | 1016 hPa | 0 mm | - | - | - |
| 1787849682 | 27.22° C | 76% | 1016.1 hPa | 0 mm | - | - | - |
| 1787849322 | 26.67° C | 75% | 1016.2 hPa | 0 mm | - | - | - |
| 1787848971 | 26.67° C | 76% | 1016.2 hPa | 0 mm | - | - | - |
| 1787848604 | 26.67° C | 76% | 1016.3 hPa | 0 mm | - | - | - |
| 1787848250 | 26.67° C | 76% | 1016.3 hPa | 0 mm | - | - | - |
| 1787847881 | 26.67° C | 76% | 1016.5 hPa | 0 mm | - | - | - |
| 1787847532 | 26.11° C | 76% | 1016.5 hPa | 0 mm | - | - | - |
| 1787847171 | 26.67° C | 76% | 1016.6 hPa | 0 mm | - | - | - |
| 1787846830 | 26.67° C | 76% | 1016.7 hPa | 0 mm | - | - | - |
| 1787846449 | 26.67° C | 75% | 1016.9 hPa | 0 mm | - | - | - |
| 1787846128 | 26.11° C | 75% | 1016.9 hPa | 0 mm | - | - | - |
| 1787845903 | 25.56° C | 75% | 1017.1 hPa | 0 mm | - | - | - |
| 1787845368 | 25.56° C | 75% | 1017.2 hPa | 0 mm | - | - | - |
| 1787845062 | 25.56° C | 75% | 1017.3 hPa | 0 mm | - | - | - |
| 1787844641 | 25.56° C | 75% | 1017.3 hPa | 0 mm | - | - | - |
| 1787844281 | 25.56° C | 74% | 1017.2 hPa | 0 mm | - | - | - |
| 1787843932 | 25° C | 74% | 1017.2 hPa | 0 mm | - | - | - |
| 1787843573 | 24.44° C | 74% | 1017.2 hPa | 0 mm | - | - | - |
| 1787843203 | 25° C | 75% | 1017.2 hPa | 0 mm | - | - | - |
| 1787842843 | 25° C | 74% | 1017.1 hPa | 0 mm | - | - | - |
* Rain latest hour (hover to see other rain measurements)
** Current wind speed in m/s (hover to see current wind gust speed)